Location: *
(37.1106°S, 150.0723°W)
Time: 18:50:40
(UTC+00:00)

Daily predictions for brighter satellites

Satellite Brightness Start Highest point End
(mag) Time Altitude Azimuth Time Altitude Azimuth Time Altitude Azimuth
Cosmos 1980 Rocket 2.1 12:07:38 64° N 12:08:26 76° ENE 12:14:06 10° SSE
SL-4 R/B 4.3 12:07:16 10° SSW 12:10:28 23° SSE 12:13:30 10° E
Cosmos 1461 3.2 12:13:25 58° SSW 12:13:25 58° SSW 12:17:00 10° SSE
CZ-2C R/B 2.8 12:08:52 10° SSE 12:14:28 69° ENE 12:15:44 51° NNE
Cosmos 1190 Rocket 3.9 12:13:30 10° SSW 12:18:53 88° ESE 12:20:17 51° NNE
Cosmos 1536 4.1 12:15:48 10° SSE 12:19:19 34° ESE 12:20:13 30° ENE
Cosmos 2219 4.3 12:17:06 10° S 12:22:38 44° ESE 12:28:06 10° NE
Okean 1 3.4 12:23:49 66° SE 12:23:49 66° SE 12:27:11 10° S
Cosmos 2221 2.9 12:24:58 49° WSW 12:24:58 49° WSW 12:28:44 10° S
ATLAS 3B R/B 3.5 12:19:22 10° SW 12:23:26 29° W 12:23:26 29° W
Cosmos 1842 Rocket 4.4 12:25:44 36° NE 12:26:54 45° E 12:31:11 10° SSE
CRYOSAT 2 4.5 12:24:02 10° S 12:29:00 73° E 12:30:19 48° NNE
Meteor 2-15 4.4 12:23:32 10° SSW 12:29:40 66° W 12:31:24 46° NNW
Cosmos 1371 Rocket 4.4 12:30:32 44° W 12:31:13 47° WSW 12:36:17 10° S
Tiangong -0.7 12:33:03 36° S 12:33:22 37° S 12:36:27 10° ESE
USA 229 DEB 3.5 12:27:56 10° SW 12:33:57 47° WNW 12:34:25 46° NW
USA 229 3.5 12:27:59 10° SW 12:34:01 47° WNW 12:34:34 46° NW
NOAA 11 4.3 12:34:09 50° NW 12:35:09 58° W 12:40:37 10° SSW
MOZ.5/SAFIR/RUBIN 5/SL-8 3.9 12:30:41 10° SSE 12:35:28 71° ENE 12:36:46 47° N
Cosmos 2251 Rocket 4.0 12:33:13 10° SSW 12:38:06 41° W 12:38:06 41° W
Cosmos 972 Rocket 4.3 12:33:34 10° SSW 12:39:25 76° WNW 12:42:55 29° N
ADEOS II 3.3 12:40:54 25° W 12:40:54 25° W 12:44:36 10° SW
Resurs 1-4 Rocket 4.0 12:41:29 15° WSW 12:41:29 15° WSW 12:43:28 10° SW
Cosmos 1452 Rocket 3.9 12:40:53 34° NNE 12:43:01 58° ENE 12:48:14 10° SSE
Cosmos 1605 Rocket 4.4 12:39:00 10° SSW 12:44:53 44° W 12:46:27 37° NW
Cosmos 2322 Rocket 4.4 12:44:24 10° NE 12:48:21 19° E 12:52:19 10° SE
BlueWalker 3 2.3 12:48:17 49° WSW 12:48:40 51° SW 12:52:22 10° SE
SJ 16-02 3.2 12:46:44 10° S 12:50:36 30° ESE 12:54:26 10° NE
H-2A R/B 2.5 12:47:11 11° NNE 12:52:14 64° ESE 12:57:27 10° S
Cosmos 1727 Rocket 4.1 12:51:05 36° NW 12:53:37 61° W 12:59:56 10° S
SL-16 R/B 3.3 12:51:50 18° NNE 12:55:33 39° ENE 13:00:48 10° SE
Meteor 1-19 Rocket 4.1 12:54:03 32° N 12:56:39 88° E 13:02:09 10° S
Cosmos 1331 Rocket 4.0 12:54:43 35° N 12:56:59 83° ENE 13:02:21 10° SSE
Cosmos 1805 3.4 12:54:04 10° S 12:57:40 61° E 12:59:12 31° NNE
USA 305 4.3 12:56:48 19° SW 12:57:49 22° SSW 13:00:54 10° SSE
Meteor 2-19 Rocket 4.4 12:55:19 30° NNW 12:58:30 80° W 13:04:46 10° S
BREEZE-M DEB (TANK) 2.3 12:58:32 67° NW 12:58:53 87° NNE 13:02:02 10° ESE
Cosmos 676 Rocket 4.0 12:55:15 10° SSW 13:00:34 65° WNW 13:03:41 25° N
ALOS 4.0 13:02:48 17° WSW 13:02:48 17° WSW 13:05:02 10° SW
Cosmos 2369 4.1 13:04:39 32° WNW 13:07:04 52° WSW 13:12:42 10° SSE
Envisat 4.0 13:09:36 26° WNW 13:09:59 26° W 13:14:17 10° SW
Meteor 1-11 Rocket 3.8 13:04:18 10° S 13:10:22 84° W 13:15:56 12° N
CZ-4 R/B 3.9 13:06:41 11° NNE 13:11:28 85° ESE 13:16:32 10° SSW
Meteor 1-27 Rocket 3.8 13:08:35 24° NNW 13:12:13 83° W 13:18:13 10° S
Cosmos 1975 4.2 13:11:16 10° S 13:14:52 36° E 13:18:26 10° NNE
Cosmos 1459 Rocket 3.9 13:08:43 10° S 13:15:03 80° W 13:20:57 11° N
USA 59 Rocket 2.2 13:09:38 10° SW 13:16:36 27° WNW 13:18:36 24° NW
Cosmos 1346 Rocket 2.6 13:14:36 10° S 13:18:25 89° E 13:21:06 18° N
Cosmos 1939 Rocket 4.4 13:16:25 10° NE 13:19:50 34° ESE 13:23:17 10° S
OAO 3 Rocket 3.2 13:17:57 23° W 13:20:54 62° N 13:25:43 10° ENE
Cosmos 2263 Rocket 2.2 13:15:43 10° SSW 13:21:23 63° WNW 13:26:59 10° N
Cosmos 2237 4.2 13:19:15 23° NNW 13:22:56 89° WSW 13:28:44 10° SSE
Cosmos 2084 3.3 13:22:46 31° NW 13:24:40 81° SW 13:28:58 10° SSE
USA 215 3.7 13:21:47 10° SE 13:28:14 56° SW 13:33:15 17° WNW
Cosmos 1408 Rocket 3.6 13:24:38 10° S 13:29:03 79° E 13:33:25 10° N
CZ-2C R/B 2.7 13:27:34 23° NNW 13:30:01 42° W 13:34:28 10° SSW
USA 276 2.9 13:28:21 10° SW 13:31:12 45° SSE 13:33:50 10° ENE
Cosmos 2123 Rocket 4.1 13:28:31 19° NNW 13:33:02 60° W 13:39:14 10° S
Cosmos 1356 Rocket 3.4 13:32:04 25° NNW 13:34:07 55° W 13:38:01 10° S
YAOGAN 6 2.4 13:34:51 31° NNW 13:35:46 43° W 13:38:39 10° SSW
Cosmos 1725 Rocket 4.0 13:30:01 10° S 13:36:23 83° W 13:42:38 10° N
USA 306 3.7 13:40:54 11° SW 13:41:02 11° SW 13:41:42 10° SSW
SL-12 R/B(2) 4.0 13:35:47 10° SW 13:43:45 62° WNW 13:50:54 10° NNE
Cosmos 1805 Rocket 3.6 13:39:47 10° S 13:44:11 82° E 13:48:31 10° N
SL-19 R/B 3.9 13:42:30 10° NNE 13:45:20 68° ESE 13:48:26 10° S
Meteor 1-18 Rocket 4.5 13:42:29 10° N 13:48:11 74° E 13:53:52 10° SSE
Cosmos 2227 Rocket 3.8 13:45:37 10° WSW 13:48:31 14° W 13:49:19 14° WNW
USA 307 3.1 13:47:23 19° W 13:48:40 29° SW 13:51:27 10° SSE
SL-4 R/B 1.7 13:45:15 10° WSW 13:48:59 55° NW 13:52:28 10° NNE
SL-16 R/B 3.1 13:42:58 10° SSE 13:49:07 60° ENE 13:55:12 10° N
IRAS Rocket 4.3 13:46:45 10° NNE 13:52:16 88° ESE 13:57:50 10° SSW
Cosmos 1844 Rocket 4.0 13:46:51 10° S 13:52:20 45° ESE 13:57:44 10° NE
Cosmos 1980 Rocket 4.1 13:49:48 10° W 13:53:03 15° SW 13:56:18 10° SSW
Cosmos 1607 4.3 13:49:00 16° NW 13:53:49 53° SW 13:59:55 10° SSE
Cosmos 1674 3.3 13:56:30 18° NW 13:58:07 27° WSW 14:00:53 10° SSW
USA 267 4.4 13:52:40 10° ENE 13:58:54 48° SE 14:05:12 10° SW
Cosmos 2278 4.1 13:56:30 14° NW 14:01:16 50° WSW 14:06:50 10° SSE
Cosmos 1315 Rocket 3.0 13:58:33 13° NNW 14:01:52 48° WSW 14:05:38 10° S
Cosmos 1766 2.9 13:59:55 10° S 14:03:32 73° W 14:07:05 10° N
Cosmos 1500 Rocket 3.8 14:00:58 10° SSW 14:05:19 49° W 14:09:34 10° NNW
Cosmos 2219 4.3 14:01:55 10° SW 14:06:25 24° W 14:10:52 10° NNW
Meteor 1-28 Rocket 3.0 14:03:28 10° S 14:06:57 64° WSW 14:10:22 10° NNW
RUBIN 8/PSLV 4.5 14:05:14 10° N 14:09:26 69° WNW 14:13:43 10° SSW
Tiangong -2.1 14:07:20 10° WSW 14:10:37 89° NNW 14:13:53 10° ENE
Cosmos 1484 Rocket 2.5 14:07:10 10° NNE 14:10:44 86° WNW 14:14:20 10° SSW
Cosmos 2333 Rocket 2.3 14:07:16 10° NNW 14:13:03 88° WSW 14:18:55 10° SSE
Thor Agena Rocket 3.7 14:14:08 10° N 14:19:18 56° WNW 14:24:34 10° SSW
ARIANE 5 R/B 4.2 14:15:41 10° NE 14:20:16 38° ESE 14:24:55 10° S
NOAA 12 4.3 14:15:17 10° NNE 14:20:34 81° ESE 14:25:58 10° S
Cosmos 1666 Rocket 4.2 14:16:30 10° S 14:20:59 63° E 14:25:22 10° NNE
Cosmos 2285 Rocket 4.3 14:15:17 10° SSW 14:21:39 77° ESE 14:28:00 10° NNE
Cosmos 1908 3.0 14:18:39 10° S 14:22:06 83° E 14:25:29 10° N
SL-24 DEB 4.2 14:18:45 10° S 14:23:21 66° W 14:27:51 10° NNW
KORONAS-FOTON 4.3 14:20:58 10° NNW 14:24:14 36° W 14:27:34 10° S
Cosmos 371 Rocket 3.3 14:23:03 10° SSW 14:27:54 74° WNW 14:32:42 10° N
Cosmos 1844 3.9 14:22:17 10° SSW 14:27:55 79° ESE 14:33:31 10° NNE
SJ 16-02 2.7 14:25:24 10° SW 14:28:36 20° W 14:31:46 10° NW
Helios 1A Rocket 4.2 14:25:50 10° SSW 14:28:41 21° WSW 14:31:30 10° WNW
SL-08 RB Rocket 4.0 14:26:16 10° N 14:30:33 45° W 14:34:59 10° SSW
Cosmos 2322 Rocket 2.6 14:26:19 10° NW 14:31:53 52° WSW 14:37:30 10° SSE
